World > North America > United States > New York

Colden, New York Regional Weather

Lat: 42.64N, Lon: 78.69W
Wx Zone: NYZ085Web Search

Ads allow us to feed your daily addiction for the world's greatest weather information. We're determined to offer quality sponsors, in the least annoying way possible.

Feedback


°F Click to change Colden hourly weather to Imperial units.Click to change Colden hourly weather to Metric units. °C
Colden Weather Map
UTC Time: 6/24/2021, 16:25
Your Time:

Colden, NY Regional Weather

Expires:202106241700;;782520
ASUS41 KALY 241610
RWRALY

NEW YORK STATE HOURLY WEATHER ROUNDUP
NATIONAL WEATHER SERVICE ALBANY NY
1200 PM EDT THU JUN 24 2021

NOTE: "FAIR" INDICATES FEW OR NO CLOUDS BELOW 12,000 FEET WITH NO
SIGNIFICANT WEATHER AND/OR NO OBSTRUCTIONS TO VISIBILITY.


NYZ001>004-010>016-019>021-085-241700-
WEST

  
CITY           SKY/WX    TMP DP  RH WIND       PRES   REMARKS
NIAGARA FALLS  MOSUNNY   79  51  37 SW18      30.18F                  
BUFFALO        MOSUNNY   80  49  33 S18G25    30.20F                  
DUNKIRK        SUNNY     80  53  39 S17G24    30.20F                  
JAMESTOWN      SUNNY     71  52  50 SE17G33   30.26F                  
WELLSVILLE     SUNNY     69  46  43 S13G22    30.34S                  
ROCHESTER      MOSUNNY   77  51  40 S16       30.24F                  
PENN YAN       SUNNY     76  49  38 SW13G22   30.31S                  
$$

             KEY
       WCI = WIND CHILL INDEX
       VSB = VISIBILITY
       HX  = HEAT INDEX
$$
  

SKY/WX - Weather  TMP - Temperature  DP - Dew Point  RH - Relative Humidity
WIND - Wind Direction/Speed PRES - Barometric Pressure VSB - Visibility
WCI - Wind Chill Index E13G22 Wind - East Wind 13 mph/Gusts of 22 mph